www.pogodaiklimat.ru

Погода и климат >> Архив погоды >> Россия >> Ямало-Ненецкий АО >> Тазовский


АРХИВ ПОГОДЫ в Тазовском

Время (UTC), дата Ветер
(напр.,м/с)
 
Видим.   Явления Облачность Т
(С)
Тd
(С)
f
(%)
Тe
(С)
Тes
(С)
Комфортность P
(гПа)
Po
(гПа)
Тmin
(С)
Tmax
(С)
R
(мм)
R24
(мм)
S
(см)
21 19.03 ЮЗ 7 20 км 10/0
[Ac As]
-8.8 -10.6 87 -18 -18 1021.7 1018.0
00 20.03 ЮЗ 6 20 км 10/0
[Ac As]
-6.8 -8.4 88 -15 -15 1020.1 1016.5
03 20.03 Ю 4 50 км 10/0
[Ac As]
-8.2 -9.9 88 -15 -15 1019.0 1015.4 -10.2 90
06 20.03 Ю 4 50 км 9/0
[Ac trans Ci fib]
-8.1 -10.0 86 -15 -13 1017.4 1013.8
09 20.03 Ю 7 50 км 10/0
[Ac trans Cs]
-4.5 -6.8 84 -13 -12 1014.3 1010.8
12 20.03 Ю 7-11
{11}
2000 м ливневой снег {метель} 10/8 150 м
[Cb cap Ac As]
-1.8 -3.9 86 -9 -9 1010.9 1007.4
15 20.03 Ю 8-11
{11}
20 км {ливн. осадки, метель} 10/0
[Ac As]
-2.0 -4.5 83 -10 -10 1008.2 1004.7 -1.7 0.5
18 20.03 Ю 7-11
{11}
2000 м ливневой снег {метель} 10/10 120 м
[Cb cap]
-2.2 -3.1 94 -10 -10 1005.2 1001.7
21 20.03 ЮЗ 7-10
{11}
4000 м слаб. ливневой снег {метель} 10/10 150 м
[Cb cap]
-2.2 -2.7 96 -10 -10 1003.6 1000.1
00 21.03 З 7
{11}
20 км {ливн. осадки, метель} 10/10 120 м
[St]
-1.8 -2.3 96 -10 -10 1003.4 999.9
03 21.03 З 4 500 м туман ?/? -2.8 -3.1 98 -9 -9 1003.6 1000.1 -2.9 0.9 91
06 21.03 З 6 4000 м дымка {туман} 10/10 90 м
[St]
-2.0 -2.5 96 -9 -9 1003.9 1000.4
09 21.03 ЮЗ 4 2000 м ливневой снег 10/8 120 м
[Cb cap Ac As]
-1.6 -2.2 96 -8 -8 1004.5 1001.0
12 21.03 З 6 20 км слаб. ливневой снег 10/8 120 м
[Cb calv As op]
-1.8 -2.3 96 -9 -9 1005.1 1001.6
15 21.03 З 5 20 км {ливн. осадки} 10/10 90 м
[Sc]
-2.1 -2.4 98 -9 -9 1005.6 1002.1 -1.3 0.9
18 21.03 З 5 20 км {ливн. осадки, снег} 10/10 180 м
[Sc]
-4.2 -4.6 97 -11 -11 1005.9 1002.4
21 21.03 ЮЗ 4 20 км 10/10 150 м
[Sc]
-3.0 -3.6 96 -9 -9 1005.7 1002.2
00 22.03 ЮЗ 5 20 км 10/10 180 м
[Sc]
-3.0 -3.8 94 -10 -10 1005.8 1002.3
03 22.03 ЮЗ 3 20 км слаб. ливневой снег 10/10 180 м
[Cb cap]
-3.0 -3.9 93 -8 -8 1006.4 1002.9 -4.2 0.2 93
06 22.03 З 4 20 км в посл. час ливневой снег 10/8 100 м
[Cb cap Cs]
-1.8 -2.6 94 -8 -7 1007.1 1003.6
09 22.03 З 4 20 км 10/10 180 м
[St]
-2.2 -3.3 92 -8 -8 1009.0 1005.5
12 22.03 ЮЗ 3 50 км 9/6 630 м
[Sc Ac trans]
-3.9 -5.1 91 -9 -9 1010.6 1007.1
15 22.03 З 5 2000 м дымка 10/10 90 м
[St]
-6.7 -7.3 95 -14 -14 1012.0 1008.4 -1.4 0.9
18 22.03 З 5 4000 м дымка [диам. изморози 2 мм] 10/10 90 м
[St]
-7.2 -7.9 95 -15 -15 1013.4 1009.8
21 22.03 ЮЗ 3 1000 м дымка [диам. изморози 3 мм] 10/10 60 м
[St]
-7.5 -8.2 95 -13 -13 1014.4 1010.8
00 23.03 ЮЗ 5 2000 м дымка [диам. изморози 7 мм] 10/10 90 м
[St]
-6.6 -7.2 95 -14 -14 1014.4 1010.9
03 23.03 Ю 3 2000 м в посл. час туман [диам. изморози 8 мм] 10/10 90 м
[St]
-6.2 -6.8 96 -12 -12 1014.7 1011.1 -7.6 94
06 23.03 ЮЗ 4 10 км {туман} [диам. изморози 5 мм] 10/10 90 м
[St]
-5.5 -6.1 96 -12 -12 1014.5 1010.9
09 23.03 Ю 4 20 км [диам. изморози 0 мм] 10/6 630 м
[Sc Ac As]
-4.4 -5.0 96 -11 -11 1014.2 1010.6
12 23.03 Ю 4 20 км слаб. ливневой снег 10/10 240 м
[Cb cap]
-4.6 -5.8 91 -11 -11 1013.3 1009.7
15 23.03 Ю 5 20 км слаб. ливневой снег 10/10 360 м
[Cb cap]
-3.9 -4.8 93 -11 -11 1012.4 1008.8 -3.8 0.3
18 23.03 ЮЗ 5 20 км {ливн. осадки} 10/10 180 м
[Sc]
-4.4 -5.0 96 -12 -12 1012.0 1008.5
21 23.03 З 3 20 км 10/10 90 м
[Sc]
-5.4 -5.9 96 -11 -11 1012.2 1008.7
00 24.03 СЗ 2 20 км 10/10 210 м
[Sc]
-6.8 -7.5 95 -11 -11 1013.2 1009.6
03 24.03 З 1 20 км слаб. ливневой снег 10/8 450 м
[Cb cap Cs]
-7.0 -8.1 92 -9 -9 1013.8 1010.2 -7.3 0.2 94
06 24.03 С 2 20 км слаб. ливневой снег 10/8 180 м
[Cb cap Cs]
-7.0 -9.3 84 -11 -11 1014.4 1010.9
09 24.03 СВ 2 20 км {ливн. осадки} 10/5 1000 м
[Sc Ac As]
-7.9 -9.5 88 -12 -12 1014.7 1011.1
12 24.03 Ю 2 20 км {ливн. осадки} 10/10 750 м
[Sc]
-3.8 -5.4 89 -8 -8 1014.8 1011.2
15 24.03 Ю 4 20 км 10/10 750 м
[Sc]
-4.6 -6.5 87 -11 -11 1014.2 1010.7 -3.6 0.2
18 24.03 Ю 5 20 км 10/0
[Ac As]
-4.9 -6.1 91 -12 -12 1013.6 1010.0
21 24.03 Ю 6-10
{10}
20 км 10/0
[Ac As]
-6.0 -7.4 90 -14 -14 1012.7 1009.2
00 25.03 Ю 8-12
{12}
20 км 10/0
[Ac As]
-5.5 -7.2 88 -14 -14 1012.1 1008.5
03 25.03 Ю 7-11
{12}
20 км позёмок 8/8
[Cb calv]
-5.0 -7.4 83 -13 -13 1012.6 1009.1 -6.2 92
06 25.03 ЮЗ 7-10
{12}
50 км позёмок 8/0
[Ac trans Ci fib]
-3.4 -6.2 81 -11 -11 1013.3 1009.8
09 25.03 Ю 6
{13}
20 км позёмок 9/0
[Ac trans]
-2.0 -5.0 80 -9 -9 1014.4 1010.9
12 25.03 Ю 7-10
{13}
20 км {метель} 9/3 1000 м
[Sc Ac trans]
-3.0 -5.6 82 -11 -11 1015.2 1011.6
15 25.03 Ю 8 20 км 9/0
[Ac trans Ci fib]
-2.0 -4.7 82 -10 -10 1015.5 1011.9
18 25.03 Ю 9-12
{13}
20 км 9/0
[Ac trans]
-2.6 -5.8 79 -11 -11 1015.4 1011.8
21 25.03 ЮЗ 8-12
{12}
20 км 10/0
[Ac As]
-3.7 -6.3 82 -12 -12 1016.1 1012.6
00 26.03 Ю 8-10
{13}
20 км 4/0
[Ci fib]
-5.9 -7.9 86 -15 -15 1016.6 1013.0
03 26.03 Ю 7-10
{11}
50 км 3/0
[Ci fib]
-4.4 -6.6 85 -13 -12 1017.0 1013.4 -6.1 91
06 26.03 Ю 6
{12}
50 км 8/0
[Ci fib]
-2.0 -5.1 79 -9 -8 1016.0 1012.5
09 26.03 Ю 7 50 км 10/0
[Cs]
+0.6 -3.1 76 -6 -5 1014.7 1011.2
12 26.03 Ю 7-10
{11}
50 км 10/0
[Ac As]
+1.0 -2.9 75 -6 -6 1013.6 1010.1
15 26.03 ЮВ 7-10
{11}
20 км 10/0
[Ac As]
-0.2 -3.4 79 -7 -7 1011.4 1007.9 +1.3
18 26.03 Ю 8-12
{13}
20 км 10/0
[Ac As]
+0.3 -3.5 76 -7 -7 1010.0 1006.6

 

Местоположение метеостанции Тазовский (Ямало-Ненецкий АО, Россия): широта 67.47 долгота 78.73 высота над уровнем моря 28 м.

В архиве по умолчанию представлена погода в Тазовском за последнюю неделю. Архивные данные за месяц целиком и за предыдущие месяцы, начиная с января 2011 года, Вы можете получить, выбрав интересующий диапазон дат из раскрывающегося списка и нажав кнопку "Ввод!".


*Определитесь, кто Вы:
робот инопланетянин человек

Внимание! Время в таблицах - всемирное. Для получения местного времени необходимо прибавить поправку, которая равна 5 ч.

Смотрите также архив погоды в соседних городах и на ближайших метеорологических станциях:

Погода в Уренгое (Ямало-Ненецкий АО, Россия) (170 км)
Погода в Новом Уренгое (Ямало-Ненецкий АО, Россия) (175 км)
Погода в Антипаюте (Ямало-Ненецкий АО, Россия) (195 км)
Погода в Советской Речке (Красноярский край, Россия) (231 км)
Погода в Новом Порте (Ямало-Ненецкий АО, Россия) (249 км)
Погода в Красноселькупске (Ямало-Ненецкий АО, Россия) (256 км)
Погода в Пангодах (Ямало-Ненецкий АО, Россия) (261 км)
Погода в Ныде (Ямало-Ненецкий АО, Россия) (268 км)
Погода в Тарко-Сале (Ямало-Ненецкий АО, Россия) (287 км)
Погода в Игарке (Красноярский край, Россия) (334 км)

Пояснения к столбцам:

Ветер - указаны скорость ветра в м/с - средняя за 10 мин, порывы в срок и между сроками (в фигурных скобках) и направление, откуда дует ветер: С - северный, СВ - северо-восточный, В - восточный, ЮВ - юго-восточный, Ю - южный, ЮЗ - юго-западный, З - западный, СЗ - северо-западный.
Видимость - горизонтальная дальность видимости в метрах или километрах. При видимости от 1 до 10 км при отсутствии осадков обычно наблюдается дымка, при ухудшении видимости до 1 км и менее - туман. В сухую погоду видимость может ухудшаться дымом, пылью или мглою.
Явления - указаны атмосферные явления, наблюдавшиеся в срок или в последний час перед сроком; фигурными скобками обозначены явления, наблюдавшиеся между сроками (за 1-3 часа до срока); квадратными скобками обозначены град или гололедные отложения с указанием их диаметра в мм.
Облачность - указаны через наклонную черту общая и нижняя облачность в баллах и высота нижней границы облаков в метрах; квадратными скобками обозначены формы облаков: Ci - перистые, Cs - перисто-слоистые, Cc - перисто-кучевые, Ac - высококучевые, As - высокослоистые, Sc - слоисто-кучевые, Ns - слоисто-дождевые, Cu - кучевые, Cb - кучево-дождевые. Подробнее классификацию облаков см. в Атласе облаков (PDF).
T - Температура воздуха - температура, измеренная на высоте 2 м над землей.
Td - Температура точки росы - температура, при понижении до которой содержащийся в воздухе водяной пар достигнет насыщения.
f - Относительная влажность воздуха - влажноcть воздуха, измеренная на высоте 2 м над землей.
Te - Эффективная температура - температура, которую ощущает одетый по сезону человек в тени. Характеристика душности погоды. При расчете учитывается влияние влажности воздуха и скорости ветра на теплоощущения человека.
Tes - Эффективная температура на солнце - температура, которую ощущает человек, с поправкой на солнечный нагрев. Характеристика знойности погоды. Зависит от высоты солнца над горизонтом, облачности и скорости ветра. Ночью, в пасмурную погоду, а также при ветре 12 м/с и более поправка равна нулю.
P - Атмосферное давление - приведенное к уровню моря атмосферное давление.
Po - Атмосферное давление - измеренное на уровне метеостанции атмосферное давление.
Tmin - Минимальная температура - минимум температуры воздуха на высоте 2 м над землей.
Tmax - Максимальная температура - максимум температуры воздуха на высоте 2 м над землей.
R - Количество осадков - Количество выпавших осадков за период времени, мм. При наведении курсора мыши на число - период времени, за который выпало указанное количество осадков.
R24 - Количество осадков - Количество выпавших осадков за 24 часа, мм.
S - Снежный покров - Высота снежного покрова, см. При наведении курсора мыши на число - состояние снежного покрова и степень покрытия местности в баллах.